Location: Rounton
(54.4000°N, 1.3500°W)
Time: 08:17:34
(UTC+00:00)

Vanguard 1 Rocket - Pass Details

Date: 04 December 2021
Orbit: 651 x 4224 km, 34.3° (Epoch: 19 January)

Event Time Altitude Azimuth Distance (km) Brightness Sun altitude
Rises 08:30:33 0° 271° (W) 6,716 11.4 1.6°
Reaches altitude 10° 08:35:56 10° 258° (WSW) 6,205 11.3 2.2°
Maximum altitude 08:50:25 24° 215° (SW) 6,004 11.8 3.7°
Drops below altitude 10° 09:07:45 10° 173° (S) 7,396 13.2 5.3°
Sets 09:15:21 0° 162° (SSE) 8,241 13.9 6.0°
